* Astronomy

Members Login
Post Info TOPIC: Kosmos 1774


L

Posts: 131433
Date:
Kosmos 1774
Permalink  
 


The Kosmos 1774 satellite that was launched on the 28th August, 1986, from the Plesetsk launch site, re-entered the Earths atmosphere on the 2nd November, 2010 @ 09:34 GMT  ±4 hours.

Inclination:               60.35°
Revolution Number:   17747
Predicted Location:    58.3° S, 258.9° E

TLE Data
KOSMOS 1774
1 16922U 86065A 10306.49722581 .03604167 89353-5 11071-4 0 9728
2 16922 060.3518 196.0078 0330871 237.1610 194.6269 15.92506729177499


__________________
Page 1 of 1  sorted by
Quick Reply

Please log in to post quick replies.



Create your own FREE Forum
Report Abuse
Powered by ActiveBoard